TimeHST,TemperatureF,Dew PointF,Humidity,Sea Level PressureIn,VisibilityMPH,Wind Direction,Wind SpeedMPH,Gust SpeedMPH,PrecipitationIn,Events,Conditions,WindDirDegrees,DateUTC
12:53 AM,66.0,62.1,87,29.95,10.0,SSW,4.6,-,N/A,,Partly Cloudy,210,2011-10-30 10:53:00
1:53 AM,64.9,60.1,84,29.94,10.0,Calm,Calm,-,N/A,,Clear,0,2011-10-30 11:53:00
2:53 AM,64.9,60.1,84,29.93,10.0,SW,3.5,-,N/A,,Clear,220,2011-10-30 12:53:00
3:53 AM,64.9,60.1,84,29.92,10.0,SW,5.8,-,N/A,,Clear,230,2011-10-30 13:53:00
4:53 AM,64.9,59.0,81,29.94,10.0,WSW,6.9,-,N/A,,Clear,240,2011-10-30 14:53:00
5:53 AM,64.9,59.0,81,29.94,10.0,SW,5.8,-,N/A,,Partly Cloudy,220,2011-10-30 15:53:00
6:53 AM,66.0,61.0,84,29.96,10.0,WSW,6.9,-,N/A,,Partly Cloudy,240,2011-10-30 16:53:00
7:53 AM,68.0,61.0,78,29.99,10.0,SW,4.6,-,N/A,,Partly Cloudy,230,2011-10-30 17:53:00
8:53 AM,78.1,66.9,68,29.99,10.0,North,6.9,-,N/A,,Partly Cloudy,350,2011-10-30 18:53:00
9:53 AM,77.0,66.9,71,30.01,10.0,NE,5.8,-,0.00,,Mostly Cloudy,40,2011-10-30 19:53:00
10:53 AM,78.1,66.9,68,29.99,10.0,NNE,6.9,-,N/A,,Mostly Cloudy,20,2011-10-30 20:53:00
11:53 AM,78.1,70.0,76,29.96,8.0,North,4.6,-,0.00,Rain,Light Rain,350,2011-10-30 21:53:00
12:53 PM,81.0,69.1,67,29.94,10.0,North,8.1,-,0.00,,Partly Cloudy,10,2011-10-30 22:53:00
1:55 PM,81.0,68.0,65,29.91,10.0,North,9.2,-,N/A,,Scattered Clouds,360,2011-10-30 23:55:00
2:53 PM,81.0,68.0,65,29.90,10.0,North,8.1,-,N/A,,Scattered Clouds,10,2011-10-31 00:53:00
3:25 PM,75.2,68.0,78,29.90,3.0,NNE,4.6,20.7,0.02,Rain,Rain,20,2011-10-31 01:25:00
3:32 PM,77.0,68.0,74,29.90,9.0,North,3.5,-,0.03,Rain,Light Rain,10,2011-10-31 01:32:00
3:53 PM,77.0,69.1,76,29.90,10.0,NNE,3.5,-,0.03,,Mostly Cloudy,20,2011-10-31 01:53:00
4:53 PM,78.1,68.0,71,29.91,10.0,NNE,4.6,-,N/A,,Partly Cloudy,30,2011-10-31 02:53:00
5:36 PM,77.0,68.0,74,29.93,10.0,Calm,Calm,-,N/A,,Mostly Cloudy,0,2011-10-31 03:36:00
5:53 PM,77.0,68.0,74,29.93,10.0,North,4.6,-,N/A,,Mostly Cloudy,360,2011-10-31 03:53:00
6:04 PM,75.2,68.0,78,29.94,10.0,North,3.5,-,N/A,,Mostly Cloudy,360,2011-10-31 04:04:00
6:12 PM,77.0,68.0,74,29.94,10.0,North,4.6,-,N/A,,Mostly Cloudy,350,2011-10-31 04:12:00
6:53 PM,75.0,68.0,79,29.95,10.0,WNW,3.5,-,N/A,,Mostly Cloudy,290,2011-10-31 04:53:00
7:02 PM,73.4,68.0,83,29.95,10.0,Calm,Calm,-,N/A,,Scattered Clouds,0,2011-10-31 05:02:00
7:53 PM,72.0,66.9,84,29.96,10.0,SW,4.6,-,N/A,,Clear,230,2011-10-31 05:53:00
8:53 PM,70.0,64.9,84,29.98,10.0,SW,5.8,-,N/A,,Mostly Cloudy,220,2011-10-31 06:53:00
9:53 PM,70.0,64.0,81,29.98,10.0,SW,5.8,-,N/A,,Scattered Clouds,230,2011-10-31 07:53:00
10:53 PM,69.1,61.0,75,29.97,10.0,WSW,6.9,-,N/A,,Mostly Cloudy,240,2011-10-31 08:53:00
11:53 PM,70.0,64.0,81,29.96,10.0,Calm,Calm,-,0.00,,Overcast,0,2011-10-31 09:53:00